Baudette, MN

4:51 AM CDT on July 22, 2017 (GMT -0500)
Baudette International

Weather History for KBDE - December, 2012

Change the Weather History Date:

Sunday, December 2, 2012

  Actual Average Record
Temperature  
Mean Temperature 33 °F -  
Max Temperature 36 °F 22 °F 53 °F (1962)
Min Temperature 30 °F 6 °F -28 °F (1976)
Degree Days  
Heating Degree Days 32    
Moisture  
Dew Point 32 °F    
Average Humidity 97    
Maximum Humidity 100    
Minimum Humidity 92    
Precipitation  
Precipitation 0.00 in - - ()
Sea Level Pressure  
Sea Level Pressure 29.78 in    
Wind  
Wind Speed 6 mph (SSE)    
Max Wind Speed 10 mph    
Max Gust Speed 17 mph    
Visibility 4 miles    
Events      
Averages and records for this station are not official NWS values.
T = Trace of Precipitation, MM = Missing Value Source: NWS Daily Summary

Daily Weather History Graph

Daily Weather History Graph

Search for Another Location

Airport or City:

Trip Planner

Search our weather history database for the weather conditions in past years. The results will help you decide how hot, cold, wet, or windy it might be!

Date:

Astronomy

Dec. 02, 2012 Rise Set
Actual Time 7:51 AM CST 4:23 PM CST
Civil Twilight 7:15 AM CST 5:00 PM CST
Nautical Twilight 6:35 AM CST 5:39 PM CST
Astronomical Twilight 5:57 AM CST 6:17 PM CST
Moon 8:21 PM CST (12/2) 10:34 AM CST (12/2)
Length of Visible Light 9h 44m
Length of Day
8h 32m
Waning Gibbous, 85% of the Moon is Illuminated
Dec 2
Waning Gibbous
Dec 6
Last Quarter
Dec 13
New
Dec 19
First Quarter
Dec 28
Full

Hourly Weather History & Observations

Time (CST) Temp. Windchill Dew Point Humidity Pressure Visibility Wind Dir Wind Speed Gust Speed Precip Events Conditions
12:46 AM 32.0 °F 25.6 °F 32.0 °F 100% 29.84 in 1.2 mi NW 6.9 mph - N/A   Overcast
12:53 AM 32.0 °F 25.6 °F 32.0 °F 100% 29.88 in 1.5 mi NW 6.9 mph - N/A   Overcast
1:05 AM 32.0 °F 26.4 °F 32.0 °F 100% 29.84 in 1.0 mi NW 5.8 mph - N/A   Overcast
1:30 AM 30.2 °F 25.4 °F 30.2 °F 100% 29.84 in 1.2 mi NNW 4.6 mph - N/A   Overcast
1:38 AM 30.2 °F 24.3 °F 30.2 °F 100% 29.84 in 1.8 mi NNW 5.8 mph - N/A   Overcast
1:53 AM 30.9 °F 23.5 °F 30.9 °F 100% 29.89 in 1.2 mi NW 8.1 mph - N/A   Overcast
2:10 AM 30.2 °F 24.3 °F 30.2 °F 100% 29.84 in 1.0 mi NW 5.8 mph - N/A   Overcast
2:27 AM 30.2 °F 26.7 °F 30.2 °F 100% 29.86 in 1.5 mi WNW 3.5 mph - N/A   Overcast
2:35 AM 30.2 °F 24.3 °F 30.2 °F 100% 29.86 in 3.0 mi NW 5.8 mph - N/A   Overcast
2:53 AM 30.9 °F 26.2 °F 30.9 °F 100% 29.91 in 4.0 mi Variable 4.6 mph - N/A   Overcast
3:22 AM 30.2 °F 25.4 °F 30.2 °F 100% 29.87 in 8.0 mi NNW 4.6 mph - N/A   Overcast
3:39 AM 30.2 °F 24.3 °F 30.2 °F 100% 29.87 in 6.0 mi NW 5.8 mph - N/A   Overcast
3:53 AM 30.0 °F 26.5 °F 30.0 °F 100% 29.91 in 4.0 mi NW 3.5 mph - N/A   Overcast
4:53 AM 30.0 °F - 28.9 °F 96% 29.90 in 5.0 mi Calm Calm - N/A   Overcast
5:53 AM 30.0 °F - 28.9 °F 96% 29.92 in 5.0 mi Calm Calm - N/A   Overcast
6:53 AM 30.0 °F - 28.9 °F 96% 29.92 in 4.0 mi Calm Calm - N/A   Overcast
7:53 AM 30.0 °F - 30.0 °F 100% 29.91 in 3.0 mi Calm Calm - N/A   Overcast
8:22 AM 30.2 °F 25.4 °F 30.2 °F 100% 29.85 in 6.0 mi South 4.6 mph - N/A   Overcast
8:53 AM 32.0 °F 24.2 °F 30.0 °F 92% 29.89 in 5.0 mi SSE 9.2 mph - N/A   Overcast
9:17 AM 30.2 °F 23.4 °F 30.2 °F 100% 29.85 in 5.0 mi South 6.9 mph - N/A   Overcast
9:53 AM 30.9 °F 22.2 °F 30.0 °F 96% 29.88 in 4.0 mi South 10.4 mph 17.3 mph N/A   Overcast
10:53 AM 30.9 °F 22.8 °F 30.9 °F 100% 29.87 in 3.0 mi SSE 9.2 mph - N/A   Overcast
11:45 AM 32.0 °F 24.2 °F 30.2 °F 93% 29.80 in 2.5 mi SSE 9.2 mph 17.3 mph N/A   Overcast
11:53 AM 32.0 °F 25.6 °F 30.9 °F 96% 29.84 in 2.5 mi South 6.9 mph 17.3 mph N/A   Overcast
12:53 PM 33.1 °F 26.9 °F 32.0 °F 96% 29.82 in 3.0 mi SSE 6.9 mph - N/A   Overcast
1:53 PM 34.0 °F 27.2 °F 33.1 °F 96% 29.80 in 3.0 mi SSE 8.1 mph - N/A   Overcast
2:39 PM 33.8 °F 26.4 °F 33.8 °F 100% 29.73 in 4.0 mi SSE 9.2 mph - N/A   Overcast
2:53 PM 34.0 °F 27.2 °F 33.1 °F 96% 29.77 in 5.0 mi SSE 8.1 mph - N/A   Overcast
3:26 PM 35.6 °F 29.2 °F 33.8 °F 93% 29.72 in 6.0 mi SSE 8.1 mph - N/A   Overcast
3:53 PM 35.1 °F 29.3 °F 33.1 °F 92% 29.76 in 6.0 mi South 6.9 mph - N/A   Overcast
4:53 PM 35.1 °F 29.3 °F 33.1 °F 92% 29.74 in 6.0 mi SSE 6.9 mph - N/A   Overcast
5:53 PM 35.1 °F 28.6 °F 34.0 °F 96% 29.72 in 5.0 mi SSE 8.1 mph - N/A   Overcast
6:20 PM 35.6 °F 30.7 °F 33.8 °F 93% 29.67 in 5.0 mi SSE 5.8 mph - N/A   Overcast
6:53 PM 35.1 °F 29.3 °F 34.0 °F 96% 29.70 in 5.0 mi SSE 6.9 mph - N/A   Overcast
7:53 PM 36.0 °F 29.6 °F 35.1 °F 97% 29.67 in 4.0 mi SSE 8.1 mph - N/A   Overcast
8:24 PM 35.6 °F 29.2 °F 35.6 °F 100% 29.61 in 4.0 mi SSE 8.1 mph - N/A   Overcast
8:53 PM 36.0 °F 29.6 °F 34.0 °F 93% 29.65 in 4.0 mi SE 8.1 mph - N/A   Mostly Cloudy
9:05 PM 35.6 °F 29.2 °F 33.8 °F 93% 29.60 in 4.0 mi SE 8.1 mph - N/A   Scattered Clouds
9:12 PM 35.6 °F 29.2 °F 33.8 °F 93% 29.59 in 4.0 mi SE 8.1 mph - N/A   Mostly Cloudy
9:25 PM 35.6 °F 29.9 °F 33.8 °F 93% 29.59 in 4.0 mi SE 6.9 mph - N/A   Mostly Cloudy
9:50 PM 35.6 °F 29.2 °F 33.8 °F 93% 29.58 in 4.0 mi SE 8.1 mph - N/A   Partly Cloudy
9:53 PM 36.0 °F 30.3 °F 34.0 °F 93% 29.62 in 4.0 mi SE 6.9 mph - N/A   Partly Cloudy
10:53 PM 36.0 °F 29.6 °F 34.0 °F 93% 29.58 in 4.0 mi ESE 8.1 mph - N/A   Clear
11:53 PM 36.0 °F 29.6 °F 35.1 °F 97% 29.55 in 5.0 mi SE 8.1 mph - N/A   Clear